Location: Holcomb Observatory and Planetarium
(39.8415°N, 86.1714°W)
Time: 14:23:23
(UTC-05:00)

ISS - Visible Passes

Search period start: 13 February 2016 00:00
Search period end: 23 February 2016 00:00
Orbit: 398 x 407 km, 51.6° (Epoch: 13 February)

Date Brightness Start Highest point End Pass type
(mag) Time Alt. Az. Time Alt. Az. Time Alt. Az.
13 Feb -1.0 19:16:13 10° NNW 19:17:43 13° NNE 19:18:50 11° NNE visible
14 Feb -1.4 19:59:13 10° NNW 20:00:58 21° N 20:00:58 21° N visible
15 Feb -1.4 19:06:40 10° NNW 19:08:55 17° NNE 19:10:31 13° NE visible
15 Feb -0.4 20:42:29 10° NW 20:43:09 15° NW 20:43:09 15° NW visible
16 Feb -2.9 19:49:43 10° NW 19:52:46 45° NNE 19:52:46 45° NNE visible
17 Feb -2.1 18:57:01 10° NW 18:59:52 27° NNE 19:02:28 11° E visible
17 Feb -1.1 20:33:20 10° WNW 20:35:07 25° W 20:35:07 25° W visible
18 Feb -3.3 19:40:15 10° NW 19:43:29 75° SW 19:44:56 30° SE visible
19 Feb -3.2 18:47:21 10° NW 18:50:33 54° NE 18:53:43 10° ESE visible
19 Feb -0.6 20:24:43 10° W 20:26:39 15° SW 20:27:36 13° SSW visible
20 Feb -1.4 19:30:59 10° WNW 19:33:51 29° SW 19:36:42 10° SSE visible
22 Feb -0.2 19:22:31 10° WSW 19:23:56 12° SW 19:25:21 10° SSW visible
